Location: Observatoire
(46.1952°N, 5.3391°E)
Time: 22:04:04
(UTC+01:00)

Tiros 1 despin weight - Pass Details

Date: 24 February 2026
Orbit: 556 x 593 km, 48.2° (Epoch: 9 March)

Event Time Altitude Azimuth Distance (km) Brightness Sun altitude
Rises 11:41:45 0° 186° (S) 2,756 ? 32.3°
Reaches altitude 10° 11:45:38 10° 151° (SSE) 1,854 ? 32.5°
Maximum altitude 11:46:50 11° 134° (SE) 1,786 ? 32.6°
Drops below altitude 10° 11:48:01 10° 118° (ESE) 1,852 ? 32.6°
Sets 11:51:53 0° 82° (E) 2,744 ? 32.8°
